Current weather by "City, St" or "zip code"  
 

Current Conditions: Clearfield, Clearfield-Lawrence Airport, PA

Fair


65.0 F

Last Updated on Oct 23 2020, 9:54 pm EDT
Humidity: 70%
Wind Speed: SW 4.6 mph
Barometer 29.97 in
Dewpoint: 55.0 F
Visibility: 10.00 mi
Precip: --
Heat Index: NA
Wind Chill: NA
Current conditions at:

Clearfield, Clearfield-Lawrence Airport, PA (KFIG)

Lat: 41.04667 Lon: 78.41167

Local Radar Image active severe weather and emergency alerts image image weather storm and storm spotter reports image weather observation monitoring service image
Local
Radar
Active
Alerts
Storm Reports Obs
Monitoring

Sign-up For Email & Text Message Weather Alert Notification Services



Advertise Here

Observation History for Clearfield, Clearfield-Lawrence Airport, PA


Time Wind
(mph)
Vis
(mi)
Weather Precip (in) Temperature (F) Relative
Humidity
Wind
Chill
(F)
Heat
Index
(F)
Pressure
Air Dwpt altimeter
(in)
sea level
(mb)
Rmks
9:54 pm EDT SW 4.6 10.00 Fair -- 65.0 55.0 70% NA NA 29.97 1014.5
8:54 pm EDT SW 5.8 10.00 Fair -- 66.0 54.0 65% NA NA 29.98 1014.8
7:54 pm EDT 4.6 10.00 Fair -- 68.0 54.0 61% NA NA 29.97 1014.6
6:54 pm EDT 4.6 10.00 Fair -- 71.0 53.1 53% NA NA 29.98 1014.6
5:54 pm EDT 5.8 10.00 A Few Clouds -- 74.0 53.1 48% NA NA 29.98 1014.5
4:54 pm EDT S 9.2 10.00 Mostly Cloudy -- 76.0 53.1 45% NA NA 30.00 1015.2
3:54 pm EDT S 9.2 10.00 Partly Cloudy -- 78.0 53.1 42% NA NA 30.01 1015.6
2:54 pm EDT S 9.2 G 23.0 10.00 Partly Cloudy -- 79.0 54.0 42% NA NA 30.02 1016.0
1:54 pm EDT SW 9.2 G 19.6 10.00 Mostly Cloudy -- 78.0 53.1 42% NA NA 30.05 1017.0
12:54 pm EDT N 0.0 10.00 Partly Cloudy -- 76.0 55.9 50% NA NA 30.09 1018.3
11:54 am EDT SW 3.5 10.00 Partly Cloudy -- 72.0 57.0 59% NA NA 30.12 1019.4
10:54 am EDT W 3.5 10.00 Fair -- 68.0 55.9 65% NA NA 30.15 1020.4
9:54 am EDT N 0.0 10.00 A Few Clouds -- 63.0 57.0 81% NA NA 30.17 1021.2
8:54 am EDT N 0.0 10.00 Partly Cloudy -- 57.0 54.0 90% NA NA 30.17 1021.6
7:54 am EDT N 4.6 4.00 Fog/Mist -- 53.0 52.0 96% 52 NA 30.17 1021.2
6:54 am EDT N 0.0 10.00 Partly Cloudy -- 54.0 52.0 93% NA NA 30.16 1020.8
5:54 am EDT N 0.0 10.00 Overcast -- 55.0 53.1 93% NA NA 30.15 1020.4
4:54 am EDT N 3.5 10.00 Overcast -- 56.0 54.0 93% NA NA 30.14 1019.8
3:54 am EDT N 5.8 10.00 A Few Clouds -- 54.0 52.0 93% 53 NA 30.13 1019.5
2:54 am EDT N 6.9 10.00 Fair -- 55.0 52.0 90% 53 NA 30.14 1020.0
1:54 am EDT N 6.9 10.00 Fair -- 56.0 52.0 87% 54 NA 30.15 1020.3
12:54 am EDT N 6.9 10.00 Fair -- 56.0 51.1 84% 54 NA 30.16 1020.6
11:54 pm EDT N 5.8 10.00 Fair -- 56.0 51.1 84% 55 NA 30.17 1021.2
10:54 pm EDT N 5.8 10.00 Fair -- 58.0 51.1 78% 57 NA 30.19 1021.9

Regional Weather Observation


Clearfield, Clearfield-Lawrence Airport, PA (KFIG)

Fair
65.0 F

Bradford Regional Airport, PA (KBFD)

Overcast
68.0 F

Indiana / Stewart Field, PA (KIDI)

Partly Cloudy
64.0 F

Franklin, Venango Regional Airport, PA (KFKL)

Overcast
68.0 F

Johnstown - Cambria County Airport, PA (KJST)

Fair
63.0 F

State College - University Park Airport, PA (KUNV)

Fair
64.0 F